Location: Newark
(33.6439°N, 114.9881°W)
Time: 17:34:52
(UTC+00:00)

Transit 2A Rocket - Visible Passes

Search period start: 23 August 2019 00:00
Search period end: 02 September 2019 00:00
Orbit: 590 x 913 km, 66.7° (Epoch: 22 August)

Date Brightness Start Highest point End Pass type
(mag) Time Alt. Az. Time Alt. Az. Time Alt. Az.
23 Aug 8.2 03:58:51 10° W 04:01:46 14° NW 04:04:35 10° NNW visible
23 Aug 7.1 11:02:03 10° N 11:05:30 21° NE 11:08:48 10° ESE visible
24 Aug 7.7 03:14:23 10° WSW 03:18:57 24° NW 03:23:16 10° N visible
24 Aug 7.9 10:21:02 10° NNE 10:22:39 12° NE 10:24:15 10° ENE visible
24 Aug 4.5 12:01:17 10° NW 12:05:39 60° WSW 12:09:50 10° SSE visible
25 Aug 4.9 11:18:45 10° NNW 11:23:11 65° ENE 11:27:25 10° SE visible
26 Aug 6.2 10:36:35 10° N 10:40:35 32° ENE 10:44:25 10° ESE visible
26 Aug 5.9 12:19:52 10° WNW 12:22:47 18° WSW 12:25:38 10° SSW visible
27 Aug 8.0 02:50:34 10° W 02:54:07 17° NW 02:57:31 10° NNW visible
27 Aug 7.2 09:54:51 10° N 09:57:50 17° NE 09:58:16 17° ENE visible
27 Aug 6.3 11:36:29 10° NW 11:46:36 - S 11:37:49 18° NW visible
30 Aug 8.2 02:27:33 10° WNW 02:29:21 11° NW 02:31:08 10° NNW visible
